Meteorología y climatología de Navarra
Datos de la estación - Meteo Navarra

Estación de Iñarbegi GN

Altitud 585 m.


Datos desde el 26/03/2020 hasta el 27/03/2020 en horario solar
Los datos son PROVISIONALES

Anterior Página 1 de 1 Siguiente Descargar: Formato para Excel 2000 o superior   Formato csv   Formato para OpenOffice Calc
Fecha Temperatura Humedad relativa Radiación global Insolación Precipitación Vel. viento 10 m Vel. viento 10 m Dir. viento 10 m
ºC % W/m² s l/m² m/s km/h º
26/03/2020 0:00 4.5 83 - - - - 0.0 - - - - - -
26/03/2020 0:10 4.6 84 - - - - 0.0 - - - - - -
26/03/2020 0:20 4.8 82 - - - - 0.0 - - - - - -
26/03/2020 0:30 4.8 83 - - - - 0.0 - - - - - -
26/03/2020 0:40 4.8 83 - - - - 0.0 - - - - - -
26/03/2020 0:50 4.9 85 - - - - 0.0 - - - - - -
26/03/2020 1:00 5.1 85 - - - - 0.0 - - - - - -
26/03/2020 1:10 5.2 85 - - - - 0.0 - - - - - -
26/03/2020 1:20 5.1 84 - - - - 0.0 - - - - - -
26/03/2020 1:30 5.2 85 - - - - 0.0 - - - - - -
26/03/2020 1:40 5.2 85 - - - - 0.0 - - - - - -
26/03/2020 1:50 5.2 86 - - - - 0.0 - - - - - -
26/03/2020 2:00 5.2 86 - - - - 0.0 - - - - - -
26/03/2020 2:10 5.5 87 - - - - 0.0 - - - - - -
26/03/2020 2:20 5.5 87 - - - - 0.0 - - - - - -
26/03/2020 2:30 5.6 87 - - - - 0.0 - - - - - -
26/03/2020 2:40 5.6 87 - - - - 0.0 - - - - - -
26/03/2020 2:50 5.6 88 - - - - 0.0 - - - - - -
26/03/2020 3:00 5.6 88 - - - - 0.0 - - - - - -
26/03/2020 3:10 5.3 88 - - - - 0.0 - - - - - -
26/03/2020 3:20 5.2 88 - - - - 0.0 - - - - - -
26/03/2020 3:30 5.2 87 - - - - 0.0 - - - - - -
26/03/2020 3:40 5.2 86 - - - - 0.0 - - - - - -
26/03/2020 3:50 5.2 85 - - - - 0.0 - - - - - -
26/03/2020 4:00 5.2 84 - - - - 0.0 - - - - - -
26/03/2020 4:10 5.1 82 - - - - 0.0 - - - - - -
26/03/2020 4:20 5.1 82 - - - - 0.0 - - - - - -
26/03/2020 4:30 5.1 81 - - - - 0.0 - - - - - -
26/03/2020 4:40 5.2 81 - - - - 0.0 - - - - - -
26/03/2020 4:50 5.2 81 - - - - 0.0 - - - - - -
26/03/2020 5:00 5.2 81 - - - - 0.0 - - - - - -
26/03/2020 5:10 5.3 82 - - - - 0.0 - - - - - -
26/03/2020 5:20 5.2 82 - - - - 0.0 - - - - - -
26/03/2020 5:30 5.2 81 - - - - 0.0 - - - - - -
26/03/2020 5:40 5.3 80 - - - - 0.0 - - - - - -
26/03/2020 5:50 5.2 81 - - - - 0.0 - - - - - -
26/03/2020 6:00 5.2 79 - - - - 0.0 - - - - - -
26/03/2020 6:10 5.2 77 - - - - 0.0 - - - - - -
26/03/2020 6:20 5.2 76 - - - - 0.0 - - - - - -
26/03/2020 6:30 5.0 75 - - - - 0.0 - - - - - -
26/03/2020 6:40 5.1 74 - - - - 0.0 - - - - - -
26/03/2020 6:50 5.1 73 - - - - 0.0 - - - - - -
26/03/2020 7:00 5.0 73 - - - - 0.0 - - - - - -
26/03/2020 7:10 4.9 71 - - - - 0.0 - - - - - -
26/03/2020 7:20 4.9 71 - - - - 0.0 - - - - - -
26/03/2020 7:30 4.9 72 - - - - 0.0 - - - - - -
26/03/2020 7:40 5.3 73 - - - - 0.0 - - - - - -
26/03/2020 7:50 5.3 74 - - - - 0.0 - - - - - -
26/03/2020 8:00 5.2 75 - - - - 0.0 - - - - - -
26/03/2020 8:10 5.2 72 - - - - 0.0 - - - - - -
26/03/2020 8:20 5.5 67 - - - - 0.0 - - - - - -
26/03/2020 8:30 5.5 61 - - - - 0.0 - - - - - -
26/03/2020 8:40 5.4 57 - - - - 0.0 - - - - - -
26/03/2020 8:50 5.0 53 - - - - 0.0 - - - - - -
26/03/2020 9:00 5.0 53 - - - - 0.0 - - - - - -
26/03/2020 9:10 5.3 53 - - - - 0.0 - - - - - -
26/03/2020 9:20 5.9 54 - - - - 0.0 - - - - - -
26/03/2020 9:30 6.4 53 - - - - 0.0 - - - - - -
26/03/2020 9:40 6.1 56 - - - - 0.0 - - - - - -
26/03/2020 9:50 6.5 57 - - - - 0.0 - - - - - -
26/03/2020 10:00 7.4 53 - - - - 0.0 - - - - - -
26/03/2020 10:10 7.0 54 - - - - 0.0 - - - - - -
26/03/2020 10:20 7.2 55 - - - - 0.0 - - - - - -
26/03/2020 10:30 7.5 51 - - - - 0.0 - - - - - -
26/03/2020 10:40 7.8 47 - - - - 0.0 - - - - - -
26/03/2020 10:50 7.6 44 - - - - 0.0 - - - - - -
26/03/2020 11:00 8.1 43 - - - - 0.0 - - - - - -
26/03/2020 11:10 8.0 42 - - - - 0.0 - - - - - -
26/03/2020 11:20 8.4 41 - - - - 0.0 - - - - - -
26/03/2020 11:30 8.5 41 - - - - 0.0 - - - - - -
26/03/2020 11:40 8.6 44 - - - - 0.0 - - - - - -
26/03/2020 11:50 9.0 44 - - - - 0.0 - - - - - -
26/03/2020 12:00 8.9 42 - - - - 0.0 - - - - - -
26/03/2020 12:10 9.1 40 - - - - 0.0 - - - - - -
26/03/2020 12:20 9.6 39 - - - - 0.0 - - - - - -
26/03/2020 12:30 9.3 39 - - - - 0.0 - - - - - -
26/03/2020 12:40 9.2 37 - - - - 0.0 - - - - - -
26/03/2020 12:50 9.3 38 - - - - 0.0 - - - - - -
26/03/2020 13:00 9.2 42 - - - - 0.0 - - - - - -
26/03/2020 13:10 9.5 42 - - - - 0.0 - - - - - -
26/03/2020 13:20 10.1 41 - - - - 0.0 - - - - - -
26/03/2020 13:30 9.4 42 - - - - 0.0 - - - - - -
26/03/2020 13:40 9.5 41 - - - - 0.0 - - - - - -
26/03/2020 13:50 9.5 42 - - - - 0.0 - - - - - -
26/03/2020 14:00 9.8 41 - - - - 0.0 - - - - - -
26/03/2020 14:10 10.0 41 - - - - 0.0 - - - - - -
26/03/2020 14:20 9.4 42 - - - - 0.0 - - - - - -
26/03/2020 14:30 9.7 41 - - - - 0.0 - - - - - -
26/03/2020 14:40 9.2 41 - - - - 0.0 - - - - - -
26/03/2020 14:50 9.4 44 - - - - 0.0 - - - - - -
26/03/2020 15:00 9.5 44 - - - - 0.0 - - - - - -
26/03/2020 15:10 8.7 47 - - - - 0.0 - - - - - -
26/03/2020 15:20 8.3 48 - - - - 0.0 - - - - - -
26/03/2020 15:30 8.6 50 - - - - 0.0 - - - - - -
26/03/2020 15:40 7.4 51 - - - - 0.0 - - - - - -
26/03/2020 15:50 6.8 55 - - - - 0.0 - - - - - -
26/03/2020 16:00 6.9 54 - - - - 0.0 - - - - - -
26/03/2020 16:10 6.6 56 - - - - 0.0 - - - - - -
26/03/2020 16:20 6.4 56 - - - - 0.0 - - - - - -
26/03/2020 16:30 5.7 57 - - - - 0.0 - - - - - -
26/03/2020 16:40 6.1 58 - - - - 0.0 - - - - - -
26/03/2020 16:50 7.2 55 - - - - 0.0 - - - - - -
26/03/2020 17:00 6.2 56 - - - - 0.0 - - - - - -
26/03/2020 17:10 5.3 59 - - - - 0.0 - - - - - -
26/03/2020 17:20 5.0 61 - - - - 0.0 - - - - - -
26/03/2020 17:30 4.7 63 - - - - 0.0 - - - - - -
26/03/2020 17:40 4.5 64 - - - - 0.0 - - - - - -
26/03/2020 17:50 4.3 65 - - - - 0.0 - - - - - -
26/03/2020 18:00 4.1 66 - - - - 0.0 - - - - - -
26/03/2020 18:10 3.9 67 - - - - 0.0 - - - - - -
26/03/2020 18:20 3.7 68 - - - - 0.0 - - - - - -
26/03/2020 18:30 3.5 68 - - - - 0.0 - - - - - -
26/03/2020 18:40 3.2 70 - - - - 0.0 - - - - - -
26/03/2020 18:50 3.0 70 - - - - 0.0 - - - - - -
26/03/2020 19:00 2.8 72 - - - - 0.0 - - - - - -
26/03/2020 19:10 2.6 73 - - - - 0.0 - - - - - -
26/03/2020 19:20 2.4 74 - - - - 0.0 - - - - - -
26/03/2020 19:30 2.3 74 - - - - 0.0 - - - - - -
26/03/2020 19:40 2.2 75 - - - - 0.0 - - - - - -
26/03/2020 19:50 2.2 75 - - - - 0.0 - - - - - -
26/03/2020 20:00 2.3 74 - - - - 0.0 - - - - - -
26/03/2020 20:10 2.4 74 - - - - 0.0 - - - - - -
26/03/2020 20:20 2.7 73 - - - - 0.0 - - - - - -
26/03/2020 20:30 2.5 73 - - - - 0.0 - - - - - -
26/03/2020 20:40 2.4 74 - - - - 0.0 - - - - - -
26/03/2020 20:50 2.5 74 - - - - 0.0 - - - - - -
26/03/2020 21:00 2.6 73 - - - - 0.0 - - - - - -
26/03/2020 21:10 2.3 76 - - - - 0.0 - - - - - -
26/03/2020 21:20 2.5 74 - - - - 0.0 - - - - - -
26/03/2020 21:30 2.6 74 - - - - 0.0 - - - - - -
26/03/2020 21:40 2.3 76 - - - - 0.0 - - - - - -
26/03/2020 21:50 2.4 74 - - - - 0.0 - - - - - -
26/03/2020 22:00 2.1 76 - - - - 0.0 - - - - - -
26/03/2020 22:10 2.1 76 - - - - 0.0 - - - - - -
26/03/2020 22:20 1.8 78 - - - - 0.0 - - - - - -
26/03/2020 22:30 1.6 80 - - - - 0.0 - - - - - -
26/03/2020 22:40 1.7 80 - - - - 0.0 - - - - - -
26/03/2020 22:50 1.3 82 - - - - 0.0 - - - - - -
26/03/2020 23:00 1.4 82 - - - - 0.0 - - - - - -
26/03/2020 23:10 1.3 82 - - - - 0.0 - - - - - -
26/03/2020 23:20 1.3 83 - - - - 0.0 - - - - - -
26/03/2020 23:30 1.0 84 - - - - 0.0 - - - - - -
26/03/2020 23:40 1.0 84 - - - - 0.0 - - - - - -
26/03/2020 23:50 1.3 82 - - - - 0.0 - - - - - -
Anterior Página 1 de 1 Siguiente

NOTA: Tipo de datos según el color:
   - Valores diarios o 10 minutos correctos
   - Valores diarios calculados a partir de un número de datos 10 minutos menor que 144 y mayor que 120, o de un número de datos semihorarios menor que 48 y mayor que 40 (caso de las estaciones de INTIA y del Ministerio)
   - Valores diez minutos estimados


Contacto        Enlaces        Aviso legal